TimeEDT,TemperatureF,Dew PointF,Humidity,Sea Level PressureIn,VisibilityMPH,Wind Direction,Wind SpeedMPH,Gust SpeedMPH,PrecipitationIn,Events,Conditions,WindDirDegrees,DateUTC
12:53 AM,73.0,71.1,93,30.06,9.0,WSW,3.5,-,N/A,,Clear,240,2013-08-23 04:53:00
1:53 AM,73.0,71.1,93,30.05,10.0,WSW,3.5,-,N/A,,Clear,240,2013-08-23 05:53:00
2:53 AM,73.0,70.0,90,30.04,10.0,Calm,Calm,-,N/A,,Clear,0,2013-08-23 06:53:00
3:53 AM,72.0,70.0,93,30.03,8.0,Calm,Calm,-,N/A,,Clear,0,2013-08-23 07:53:00
4:53 AM,72.0,70.0,93,30.01,9.0,Calm,Calm,-,N/A,,Clear,0,2013-08-23 08:53:00
5:38 AM,71.6,69.8,94,30.03,9.0,Calm,Calm,-,N/A,,Mostly Cloudy,0,2013-08-23 09:38:00
5:53 AM,72.0,70.0,93,30.02,9.0,Calm,Calm,-,N/A,,Partly Cloudy,0,2013-08-23 09:53:00
6:53 AM,72.0,70.0,93,30.03,8.0,Calm,Calm,-,N/A,,Clear,0,2013-08-23 10:53:00
7:36 AM,71.6,69.8,94,30.05,8.0,West,3.5,-,N/A,,Partly Cloudy,270,2013-08-23 11:36:00
7:53 AM,73.0,70.0,90,30.05,8.0,Calm,Calm,-,N/A,,Partly Cloudy,0,2013-08-23 11:53:00
8:53 AM,75.9,71.1,85,30.06,10.0,West,5.8,-,N/A,,Clear,260,2013-08-23 12:53:00
9:53 AM,79.0,71.1,77,30.06,10.0,West,6.9,-,N/A,,Clear,260,2013-08-23 13:53:00
10:53 AM,82.0,71.1,69,30.06,10.0,NW,5.8,-,N/A,,Clear,310,2013-08-23 14:53:00
11:53 AM,84.9,72.0,65,30.05,10.0,NNW,5.8,-,N/A,,Clear,340,2013-08-23 15:53:00
12:53 PM,87.1,72.0,61,30.03,10.0,Variable,5.8,-,N/A,,Partly Cloudy,0,2013-08-23 16:53:00
1:53 PM,87.1,71.1,59,30.01,10.0,Variable,4.6,-,N/A,,Partly Cloudy,0,2013-08-23 17:53:00
2:20 PM,75.2,69.8,83,30.03,2.5,SW,12.7,18.4,0.07,Rain,Rain,230,2013-08-23 18:20:00
2:28 PM,75.2,69.8,83,30.01,8.0,SW,10.4,-,0.07,Rain,Light Rain,230,2013-08-23 18:28:00
2:53 PM,75.9,70.0,82,30.00,10.0,WSW,4.6,-,0.07,Rain,Light Rain,240,2013-08-23 18:53:00
3:53 PM,82.0,70.0,67,29.98,10.0,SSW,4.6,-,0.00,,Clear,210,2013-08-23 19:53:00
4:53 PM,79.0,70.0,74,29.98,10.0,WSW,3.5,-,N/A,,Clear,240,2013-08-23 20:53:00
5:53 PM,82.0,73.0,74,29.98,10.0,SW,3.5,-,N/A,,Clear,230,2013-08-23 21:53:00
6:53 PM,84.0,73.0,69,29.98,10.0,West,3.5,-,N/A,,Scattered Clouds,260,2013-08-23 22:53:00
7:53 PM,80.1,75.0,85,30.00,10.0,SSW,3.5,-,N/A,,Partly Cloudy,210,2013-08-23 23:53:00
8:53 PM,79.0,72.0,79,30.01,10.0,Calm,Calm,-,N/A,,Clear,0,2013-08-24 00:53:00
9:53 PM,75.0,70.0,84,30.04,10.0,Calm,Calm,-,N/A,,Clear,0,2013-08-24 01:53:00
10:53 PM,73.9,71.1,91,30.02,10.0,Calm,Calm,-,N/A,,Clear,0,2013-08-24 02:53:00
11:53 PM,75.0,71.1,87,30.03,10.0,Calm,Calm,-,N/A,,Mostly Cloudy,0,2013-08-24 03:53:00